Home > Weather > Wheaton > Past weeks

Flag for U.S.A. Weather for the Past 2 Weeks in Wheaton, Illinois, U.S.A.

Now
27 °F

Overcast.


Feels Like: 16 °F
Forecast: 26 / 32 °F
Wind: 13 mph from Northwest

Location: Dupage Airport

Current Time: Feb 8, 2016 at 11:43:22 AM

Latest Report: Feb 8, 2016 at 10:52 AM


Visibility: 10 mi

Pressure: 29.70 "Hg

Humidity: 78%

Dew point: 21 °F

Location of WheatonLocation

Historic Weather in Wheaton — Graph

°F

Wheaton Temperature Yesterday

Maximum temperature yesterday: 43 °F (at 3:52 PM)
Minimum temperature yesterday: 29 °F (at 11:52 PM)
Average temperature yesterday: 37 °F

High & Low Weather Summary for the Past Weeks

 TemperatureHumidityPressure
High48 °F (Jan 31, 10:52 AM)100% (Feb 2, 10:04 PM)30.38 "Hg (Feb 2, 10:04 PM)
Low18 °F (Jan 29, 5:52 AM)45% (Jan 29, 12:52 PM)29.46 "Hg (Feb 3, 2:52 AM)
Average32 °F76%29.91 "Hg
* Reported Jan 24 9:52 AM — Feb 8 9:52 AM, Wheaton, Weather by CustomWeather, © 2016

Note: Actual official high and low records may vary slightly from our data, if they occured in-between our weather recording intervals... More about our weather records

Advertising

Wheaton Weather History for the Previous 24 Hours

 ConditionsComfort  
Time TempWeatherWind HumidityBarometerVisibility
9:52 AM
Mon, Feb 8
27 °FMostly cloudy.13 mph75%29.69 "Hg10 mi
8:52 AM28 °FOvercast.14 mph72%29.67 "Hg10 mi
7:52 AM28 °FOvercast.13 mph72%29.66 "Hg10 mi
6:52 AM29 °FMostly cloudy.13 mph75%29.65 "Hg10 mi
5:52 AM31 °FLight snow. Mostly cloudy.14 mph82%29.64 "Hg7 mi
4:52 AM31 °FLight snow. Ice fog.8 mph89%29.62 "Hg1 mi
3:52 AM29 °FPassing clouds.7 mph85%29.63 "Hg10 mi
2:52 AM29 °FPassing clouds.6 mph85%29.64 "Hg10 mi
1:52 AM29 °FClear.8 mph82%29.66 "Hg10 mi
12:52 AM29 °FClear.8 mph85%29.67 "Hg10 mi
11:52 PM
Sun, Feb 7
29 °FClear.7 mph82%29.70 "Hg10 mi
10:52 PM31 °FClear.7 mph79%29.72 "Hg10 mi
9:52 PM31 °FClear.9 mph79%29.73 "Hg10 mi
8:52 PM34 °FClear.10 mph73%29.75 "Hg10 mi
7:52 PM34 °FClear.9 mph73%29.76 "Hg10 mi
6:52 PM37 °FClear.12 mph67%29.78 "Hg10 mi
5:52 PM38 °FClear.12 mph68%29.78 "Hg10 mi
4:52 PM41 °FSunny.14 mph65%29.76 "Hg10 mi
3:52 PM43 °FPassing clouds.15 mph68%29.74 "Hg10 mi
2:52 PM42 °FSunny.13 mph68%29.74 "Hg10 mi
1:52 PM41 °FScattered clouds.20 mph65%29.74 "Hg10 mi
12:52 PM42 °FBroken clouds.18 mph62%29.75 "Hg10 mi
11:52 AM41 °FSunny.21 mph62%29.77 "Hg10 mi
Weather by CustomWeather, © 2016

See weather overviewHow to use our weather pages